| time (UTC) | temp F | wind direction | speed MPH | gust MPH | rain 1hr in | rain 24hr in | rain mn in | humidity % | barometer mb |
| 20260904162005 | 89 | 161 | 0.0 | 1.0 | 0.00 | 0.00 | 0.00 | 69 | 1007.8 |
| 20260904161505 | 88 | 161 | 1.0 | 2.0 | 0.00 | 0.00 | 0.00 | 68 | 1007.9 |
| 20260904161006 | 88 | 161 | 1.0 | 2.0 | 0.00 | 0.00 | 0.00 | 68 | 1007.9 |
| 20260904160005 | 88 | 161 | 0.0 | 2.0 | 0.00 | 0.00 | 0.00 | 71 | 1007.9 |
| 20260904155505 | 87 | 161 | 0.0 | 1.0 | 0.00 | 0.00 | 0.00 | 70 | 1007.9 |
| 20260904155005 | 87 | 161 | 0.0 | 2.0 | 0.00 | 0.00 | 0.00 | 70 | 1008.0 |
| 20260904154505 | 87 | 161 | 1.0 | 3.0 | 0.00 | 0.00 | 0.00 | 69 | 1008.1 |
| 20260904154005 | 86 | 161 | 0.0 | 1.0 | 0.00 | 0.00 | 0.00 | 75 | 1008.0 |
| 20260904153505 | 85 | 161 | 0.0 | 2.0 | 0.00 | 0.00 | 0.00 | 73 | 1008.1 |
| 20260904153005 | 85 | 161 | 1.0 | 2.0 | 0.00 | 0.00 | 0.00 | 74 | 1008.0 |
| 20260904152506 | 84 | 161 | 0.0 | 3.0 | 0.00 | 0.00 | 0.00 | 76 | 1008.0 |
| 20260904152005 | 84 | 161 | 0.0 | 1.0 | 0.00 | 0.00 | 0.00 | 77 | 1008.0 |
| 20260904151506 | 83 | 161 | 0.0 | 1.0 | 0.00 | 0.00 | 0.00 | 78 | 1007.9 |
| 20260904151006 | 83 | 161 | 0.0 | 1.0 | 0.00 | 0.00 | 0.00 | 76 | 1007.9 |
| 20260904150506 | 82 | 161 | 0.0 | 0.0 | 0.00 | 0.00 | 0.00 | 78 | 1007.9 |
| 20260904145005 | 80 | 161 | 0.0 | 2.0 | 0.00 | 0.00 | 0.00 | 82 | 1008.0 |
| 20260904144506 | 80 | 161 | 1.0 | 2.0 | 0.00 | 0.00 | 0.00 | 82 | 1008.0 |
| 20260904144005 | 80 | 161 | 0.0 | 3.0 | 0.00 | 0.00 | 0.00 | 82 | 1008.0 |
| 20260904143506 | 79 | 163 | 1.0 | 3.0 | 0.00 | 0.00 | 0.00 | 82 | 1007.9 |
| 20260904143006 | 79 | 163 | 0.0 | 1.0 | 0.00 | 0.00 | 0.00 | 83 | 1007.9 |
| 20260904142506 | 79 | 163 | 0.0 | 3.0 | 0.00 | 0.00 | 0.00 | 84 | 1007.8 |
| 20260904142006 | 78 | 163 | 1.0 | 2.0 | 0.00 | 0.00 | 0.00 | 84 | 1007.9 |
| 20260904141505 | 78 | 163 | 1.0 | 3.0 | 0.00 | 0.00 | 0.00 | 84 | 1007.9 |
| 20260904141005 | 78 | 163 | 1.0 | 2.0 | 0.00 | 0.00 | 0.00 | 85 | 1007.7 |
| 20260904140505 | 78 | 163 | 1.0 | 2.0 | 0.00 | 0.00 | 0.00 | 85 | 1007.6 |
| 20260904140005 | 77 | 163 | 1.0 | 2.0 | 0.00 | 0.00 | 0.00 | 86 | 1007.6 |
| 20260904135506 | 77 | 163 | 1.0 | 3.0 | 0.00 | 0.00 | 0.00 | 86 | 1007.7 |
| 20260904135005 | 77 | 163 | 1.0 | 2.0 | 0.00 | 0.00 | 0.00 | 87 | 1007.7 |
| 20260904134505 | 76 | 163 | 1.0 | 2.0 | 0.00 | 0.00 | 0.00 | 87 | 1007.7 |
| 20260904134006 | 76 | 163 | 1.0 | 3.0 | 0.00 | 0.00 | 0.00 | 87 | 1007.7 |
| 20260904133506 | 76 | 163 | 1.0 | 3.0 | 0.00 | 0.00 | 0.00 | 87 | 1007.7 |
| 20260904133006 | 76 | 163 | 1.0 | 5.0 | 0.00 | 0.00 | 0.00 | 88 | 1007.7 |
| 20260904132506 | 76 | 163 | 2.0 | 5.0 | 0.00 | 0.00 | 0.00 | 88 | 1007.7 |
| 20260904132006 | 75 | 163 | 2.0 | 5.0 | 0.00 | 0.00 | 0.00 | 88 | 1007.7 |
| 20260904131505 | 75 | 163 | 1.0 | 3.0 | 0.00 | 0.00 | 0.00 | 89 | 1007.7 |
| 20260904131005 | 75 | 163 | 2.0 | 5.0 | 0.00 | 0.00 | 0.00 | 90 | 1007.7 |
| 20260904130506 | 74 | 163 | 1.0 | 3.0 | 0.00 | 0.00 | 0.00 | 90 | 1007.6 |
| 20260904130006 | 74 | 163 | 3.0 | 6.0 | 0.00 | 0.00 | 0.00 | 91 | 1007.6 |
| 20260904125511 | 74 | 163 | 2.0 | 6.0 | 0.00 | 0.00 | 0.00 | 91 | 1007.6 |
| 20260904125006 | 73 | 163 | 1.0 | 3.0 | 0.00 | 0.00 | 0.00 | 91 | 1007.4 |
| 20260904124506 | 73 | 163 | 1.0 | 2.0 | 0.00 | 0.00 | 0.00 | 91 | 1007.3 |
| 20260904124006 | 73 | 163 | 1.0 | 2.0 | 0.00 | 0.00 | 0.00 | 91 | 1007.3 |
| 20260904123506 | 73 | 163 | 1.0 | 2.0 | 0.00 | 0.00 | 0.00 | 91 | 1007.3 |
| 20260904123005 | 73 | 163 | 1.0 | 2.0 | 0.00 | 0.00 | 0.00 | 91 | 1007.2 |
| 20260904122505 | 72 | 163 | 1.0 | 2.0 | 0.00 | 0.00 | 0.00 | 91 | 1007.2 |
| 20260904121505 | 72 | 163 | 1.0 | 3.0 | 0.00 | 0.00 | 0.00 | 91 | 1007.1 |
| 20260904121006 | 72 | 163 | 0.0 | 2.0 | 0.00 | 0.00 | 0.00 | 91 | 1007.1 |
| 20260904120505 | 73 | 163 | 1.0 | 2.0 | 0.00 | 0.00 | 0.00 | 91 | 1007.2 |
| 20260904120006 | 72 | 163 | 2.0 | 2.0 | 0.00 | 0.00 | 0.00 | 91 | 1007.2 |
| 20260904115505 | 73 | 163 | 1.0 | 3.0 | 0.00 | 0.01 | 0.00 | 91 | 1007.2 |
| 20260904115006 | 73 | 163 | 1.0 | 2.0 | 0.00 | 0.01 | 0.00 | 91 | 1007.2 |
| 20260904114505 | 73 | 163 | 1.0 | 3.0 | 0.00 | 0.02 | 0.00 | 90 | 1007.0 |
| 20260904113505 | 73 | 163 | 1.0 | 2.0 | 0.00 | 0.02 | 0.00 | 90 | 1007.0 |
| 20260904113006 | 73 | 163 | 1.0 | 3.0 | 0.00 | 0.03 | 0.00 | 90 | 1007.0 |
| 20260904112006 | 73 | 163 | 1.0 | 2.0 | 0.00 | 0.04 | 0.00 | 90 | 1007.0 |
| 20260904111505 | 73 | 163 | 1.0 | 2.0 | 0.00 | 0.05 | 0.00 | 90 | 1007.0 |
| 20260904111005 | 73 | 163 | 1.0 | 2.0 | 0.00 | 0.05 | 0.00 | 89 | 1007.0 |
| 20260904110505 | 74 | 163 | 0.0 | 2.0 | 0.00 | 0.05 | 0.00 | 89 | 1006.9 |
| 20260904110005 | 74 | 163 | 0.0 | 0.0 | 0.00 | 0.06 | 0.00 | 89 | 1006.9 |
| 20260904105505 | 74 | 163 | 0.0 | 0.0 | 0.00 | 0.06 | 0.00 | 89 | 1006.9 |
| 20260904105005 | 74 | 163 | 0.0 | 0.0 | 0.00 | 0.07 | 0.00 | 88 | 1006.9 |
| 20260904104505 | 74 | 163 | 0.0 | 0.0 | 0.00 | 0.07 | 0.00 | 88 | 1006.9 |
| 20260904104006 | 74 | 163 | 0.0 | 0.0 | 0.00 | 0.08 | 0.00 | 88 | 1006.9 |
| 20260904103506 | 75 | 163 | 0.0 | 0.0 | 0.00 | 0.08 | 0.00 | 88 | 1006.8 |
| 20260904102506 | 75 | 163 | 0.0 | 0.0 | 0.00 | 0.10 | 0.00 | 88 | 1007.0 |
| 20260904102006 | 75 | 163 | 0.0 | 0.0 | 0.00 | 0.10 | 0.00 | 88 | 1006.9 |
| 20260904101505 | 75 | 163 | 0.0 | 0.0 | 0.00 | 0.10 | 0.00 | 88 | 1006.9 |
| 20260904101005 | 75 | 163 | 0.0 | 0.0 | 0.00 | 0.10 | 0.00 | 88 | 1006.9 |
| 20260904100505 | 75 | 163 | 0.0 | 0.0 | 0.00 | 0.11 | 0.00 | 88 | 1006.9 |
| 20260904100005 | 75 | 163 | 0.0 | 2.0 | 0.00 | 0.11 | 0.00 | 88 | 1006.9 |
| 20260904095505 | 75 | 163 | 0.0 | 2.0 | 0.00 | 0.11 | 0.00 | 88 | 1006.8 |
| 20260904095006 | 75 | 163 | 1.0 | 2.0 | 0.00 | 0.11 | 0.00 | 88 | 1006.8 |
| 20260904094505 | 75 | 163 | 1.0 | 2.0 | 0.00 | 0.11 | 0.00 | 88 | 1006.7 |
| 20260904093505 | 75 | 163 | 1.0 | 3.0 | 0.00 | 0.11 | 0.00 | 88 | 1006.6 |
| 20260904093005 | 75 | 163 | 1.0 | 3.0 | 0.00 | 0.11 | 0.00 | 88 | 1006.7 |
| 20260904092505 | 75 | 163 | 1.0 | 2.0 | 0.00 | 0.11 | 0.00 | 89 | 1006.6 |
| 20260904092005 | 75 | 163 | 0.0 | 2.0 | 0.00 | 0.11 | 0.00 | 89 | 1006.7 |
| 20260904091506 | 75 | 163 | 1.0 | 2.0 | 0.00 | 0.11 | 0.00 | 89 | 1006.5 |
| 20260904091006 | 75 | 163 | 0.0 | 2.0 | 0.00 | 0.11 | 0.00 | 89 | 1006.5 |
| 20260904090506 | 75 | 163 | 1.0 | 3.0 | 0.00 | 0.11 | 0.00 | 89 | 1006.4 |
| 20260904090006 | 75 | 163 | 2.0 | 3.0 | 0.00 | 0.11 | 0.00 | 89 | 1006.4 |
| 20260904085006 | 75 | 163 | 1.0 | 3.0 | 0.00 | 0.11 | 0.00 | 89 | 1006.4 |
| 20260904084507 | 75 | 163 | 1.0 | 3.0 | 0.00 | 0.11 | 0.00 | 89 | 1006.3 |
| 20260904084006 | 75 | 163 | 2.0 | 5.0 | 0.00 | 0.11 | 0.00 | 89 | 1006.2 |
| 20260904083006 | 75 | 163 | 2.0 | 3.0 | 0.00 | 0.11 | 0.00 | 90 | 1006.0 |
| 20260904082506 | 75 | 163 | 2.0 | 5.0 | 0.00 | 0.11 | 0.00 | 90 | 1006.1 |
| 20260904082006 | 75 | 163 | 2.0 | 3.0 | 0.00 | 0.11 | 0.00 | 90 | 1006.1 |
| 20260904081506 | 75 | 163 | 2.0 | 3.0 | 0.00 | 0.11 | 0.00 | 90 | 1006.0 |
| 20260904081006 | 75 | 163 | 2.0 | 3.0 | 0.00 | 0.11 | 0.00 | 90 | 1006.0 |
| 20260904080006 | 75 | 163 | 2.0 | 5.0 | 0.00 | 0.11 | 0.00 | 90 | 1006.0 |
| 20260904075506 | 75 | 163 | 2.0 | 3.0 | 0.00 | 0.11 | 0.00 | 90 | 1006.1 |
| 20260904075006 | 75 | 163 | 2.0 | 3.0 | 0.00 | 0.11 | 0.00 | 90 | 1006.2 |
| 20260904074506 | 76 | 163 | 2.0 | 5.0 | 0.00 | 0.11 | 0.00 | 90 | 1006.2 |
| 20260904073506 | 76 | 163 | 2.0 | 5.0 | 0.00 | 0.11 | 0.00 | 90 | 1006.3 |
| 20260904073007 | 76 | 163 | 2.0 | 5.0 | 0.00 | 0.11 | 0.00 | 90 | 1006.4 |
| 20260904072506 | 76 | 163 | 2.0 | 3.0 | 0.00 | 0.11 | 0.00 | 90 | 1006.4 |
| 20260904070007 | 76 | 163 | 2.0 | 3.0 | 0.00 | 0.11 | 0.00 | 90 | 1006.5 |
| 20260904065506 | 76 | 163 | 1.0 | 3.0 | 0.00 | 0.11 | 0.00 | 90 | 1006.5 |
| 20260904065007 | 76 | 163 | 2.0 | 5.0 | 0.00 | 0.11 | 0.00 | 90 | 1006.5 |
| 20260904064507 | 76 | 163 | 2.0 | 5.0 | 0.00 | 0.11 | 0.00 | 90 | 1006.6 |
| 20260904064007 | 76 | 163 | 2.0 | 5.0 | 0.00 | 0.11 | 0.00 | 90 | 1006.6 |
| 20260904063506 | 76 | 164 | 1.0 | 3.0 | 0.00 | 0.11 | 0.00 | 90 | 1006.6 |
| 20260904063007 | 76 | 164 | 2.0 | 3.0 | 0.00 | 0.11 | 0.00 | 90 | 1006.7 |
| 20260904062506 | 76 | 164 | 1.0 | 3.0 | 0.00 | 0.11 | 0.00 | 90 | 1006.6 |
| 20260904061506 | 76 | 164 | 1.0 | 3.0 | 0.00 | 0.11 | 0.00 | 90 | 1006.7 |
| 20260904061006 | 76 | 164 | 2.0 | 3.0 | 0.00 | 0.11 | 0.00 | 90 | 1006.7 |
| 20260904060506 | 76 | 164 | 1.0 | 3.0 | 0.00 | 0.11 | 0.00 | 90 | 1006.7 |
| 20260904060006 | 76 | 164 | 1.0 | 3.0 | 0.00 | 0.11 | 0.00 | 90 | 1006.7 |
| 20260904055506 | 76 | 164 | 2.0 | 5.0 | 0.00 | 0.11 | 0.00 | 90 | 1006.7 |
| 20260904055006 | 76 | 164 | 1.0 | 3.0 | 0.00 | 0.11 | 0.00 | 90 | 1006.6 |
| 20260904054506 | 76 | 164 | 2.0 | 5.0 | 0.00 | 0.11 | 0.00 | 90 | 1006.7 |
| 20260904054007 | 76 | 164 | 2.0 | 5.0 | 0.00 | 0.11 | 0.00 | 90 | 1006.6 |
| 20260904053506 | 76 | 164 | 2.0 | 3.0 | 0.00 | 0.11 | 0.00 | 90 | 1006.6 |
| 20260904053006 | 76 | 164 | 2.0 | 3.0 | 0.00 | 0.11 | 0.00 | 90 | 1006.6 |
| 20260904052506 | 76 | 164 | 1.0 | 3.0 | 0.00 | 0.11 | 0.00 | 90 | 1006.7 |
| 20260904051506 | 76 | 164 | 1.0 | 3.0 | 0.00 | 0.11 | 0.00 | 90 | 1006.7 |
| 20260904051006 | 76 | 164 | 2.0 | 3.0 | 0.00 | 0.11 | 0.00 | 90 | 1006.7 |
| 20260904050506 | 76 | 164 | 1.0 | 3.0 | 0.00 | 0.11 | 0.00 | 89 | 1006.7 |
| 20260904050007 | 76 | 164 | 2.0 | 5.0 | 0.00 | 0.11 | 0.00 | 89 | 1006.7 |
| 20260904045506 | 76 | 163 | 1.0 | 2.0 | 0.00 | 0.11 | 0.11 | 89 | 1006.7 |
| 20260904045007 | 77 | 163 | 1.0 | 3.0 | 0.00 | 0.11 | 0.11 | 89 | 1006.7 |
| 20260904044506 | 77 | 163 | 1.0 | 3.0 | 0.00 | 0.11 | 0.11 | 89 | 1006.7 |
| 20260904044007 | 77 | 163 | 2.0 | 6.0 | 0.00 | 0.11 | 0.11 | 89 | 1006.7 |
| 20260904043507 | 77 | 169 | 2.0 | 5.0 | 0.00 | 0.11 | 0.11 | 89 | 1006.7 |
| 20260904043006 | 77 | 169 | 1.0 | 3.0 | 0.00 | 0.11 | 0.11 | 89 | 1006.7 |
| 20260904042506 | 77 | 169 | 1.0 | 3.0 | 0.00 | 0.11 | 0.11 | 89 | 1006.6 |
| 20260904042006 | 77 | 169 | 1.0 | 3.0 | 0.00 | 0.11 | 0.11 | 89 | 1006.6 |
| 20260904041006 | 77 | 169 | 2.0 | 3.0 | 0.00 | 0.11 | 0.11 | 89 | 1006.6 |
| 20260904040506 | 77 | 169 | 1.0 | 3.0 | 0.00 | 0.11 | 0.11 | 88 | 1006.7 |
| 20260904040006 | 77 | 169 | 1.0 | 5.0 | 0.00 | 0.11 | 0.11 | 88 | 1006.7 |
| 20260904035506 | 77 | 169 | 1.0 | 5.0 | 0.00 | 0.11 | 0.11 | 88 | 1006.8 |
| 20260904035006 | 77 | 169 | 1.0 | 2.0 | 0.00 | 0.11 | 0.11 | 88 | 1006.7 |
| 20260904034506 | 77 | 169 | 1.0 | 5.0 | 0.00 | 0.11 | 0.11 | 88 | 1006.7 |
| 20260904034006 | 77 | 169 | 1.0 | 3.0 | 0.00 | 0.11 | 0.11 | 88 | 1006.8 |
| 20260904033506 | 77 | 169 | 1.0 | 5.0 | 0.00 | 0.11 | 0.11 | 88 | 1006.8 |
| 20260904033006 | 77 | 170 | 1.0 | 3.0 | 0.00 | 0.11 | 0.11 | 87 | 1006.8 |
| 20260904032506 | 77 | 170 | 2.0 | 3.0 | 0.00 | 0.11 | 0.11 | 87 | 1006.8 |
| 20260904032006 | 77 | 169 | 1.0 | 5.0 | 0.00 | 0.11 | 0.11 | 87 | 1006.8 |
| 20260904031506 | 78 | 172 | 2.0 | 3.0 | 0.00 | 0.11 | 0.11 | 87 | 1006.8 |
| 20260904031006 | 78 | 172 | 1.0 | 3.0 | 0.00 | 0.11 | 0.11 | 87 | 1006.8 |
| 20260904030507 | 78 | 172 | 2.0 | 2.0 | 0.00 | 0.11 | 0.11 | 87 | 1006.8 |
| 20260904030006 | 78 | 172 | 2.0 | 5.0 | 0.00 | 0.11 | 0.11 | 87 | 1006.7 |
| 20260904025506 | 78 | 174 | 1.0 | 3.0 | 0.00 | 0.11 | 0.11 | 87 | 1006.6 |
| 20260904024506 | 78 | 157 | 1.0 | 2.0 | 0.00 | 0.11 | 0.11 | 86 | 1006.8 |
| 20260904024006 | 78 | 157 | 1.0 | 5.0 | 0.00 | 0.11 | 0.11 | 86 | 1006.8 |
| 20260904023506 | 78 | 157 | 1.0 | 5.0 | 0.00 | 0.11 | 0.11 | 86 | 1006.8 |
| 20260904022506 | 78 | 159 | 1.0 | 5.0 | 0.00 | 0.11 | 0.11 | 86 | 1006.7 |
| 20260904022006 | 78 | 159 | 2.0 | 5.0 | 0.00 | 0.11 | 0.11 | 86 | 1006.7 |
| 20260904021006 | 78 | 158 | 2.0 | 5.0 | 0.00 | 0.11 | 0.11 | 86 | 1006.7 |
| 20260904020506 | 78 | 158 | 2.0 | 5.0 | 0.00 | 0.11 | 0.11 | 86 | 1006.6 |
| 20260904020006 | 78 | 158 | 2.0 | 5.0 | 0.00 | 0.11 | 0.11 | 86 | 1006.4 |
| 20260904015506 | 78 | 161 | 2.0 | 5.0 | 0.00 | 0.11 | 0.11 | 86 | 1006.2 |
| 20260904015006 | 78 | 169 | 3.0 | 6.0 | 0.00 | 0.11 | 0.11 | 86 | 1006.4 |
| 20260904014506 | 78 | 156 | 2.0 | 3.0 | 0.00 | 0.11 | 0.11 | 86 | 1006.4 |
| 20260904014006 | 78 | 156 | 3.0 | 8.0 | 0.00 | 0.11 | 0.11 | 86 | 1006.3 |
| 20260904013506 | 78 | 169 | 2.0 | 6.0 | 0.00 | 0.11 | 0.11 | 85 | 1006.2 |
| 20260904013006 | 79 | 167 | 3.0 | 5.0 | 0.00 | 0.11 | 0.11 | 85 | 1006.4 |
| 20260904012506 | 79 | 155 | 1.0 | 6.0 | 0.00 | 0.11 | 0.11 | 85 | 1006.4 |
| 20260904012006 | 79 | 161 | 2.0 | 7.0 | 0.00 | 0.11 | 0.11 | 85 | 1006.4 |
| 20260904011506 | 79 | 160 | 2.0 | 5.0 | 0.00 | 0.11 | 0.11 | 85 | 1006.5 |
| 20260904011007 | 79 | 160 | 2.0 | 5.0 | 0.00 | 0.11 | 0.11 | 84 | 1006.5 |
| 20260904010506 | 79 | 160 | 2.0 | 5.0 | 0.00 | 0.11 | 0.11 | 84 | 1006.6 |
| 20260904004507 | 80 | 156 | 1.0 | 8.0 | 0.00 | 0.11 | 0.11 | 83 | 1006.4 |
| 20260904004007 | 80 | 153 | 2.0 | 8.0 | 0.00 | 0.11 | 0.11 | 82 | 1006.3 |
| 20260904003506 | 80 | 175 | 1.0 | 3.0 | 0.00 | 0.11 | 0.11 | 82 | 1006.3 |
| 20260904003006 | 80 | 177 | 2.0 | 3.0 | 0.00 | 0.11 | 0.11 | 82 | 1006.3 |
| 20260904002506 | 80 | 165 | 3.0 | 7.0 | 0.00 | 0.11 | 0.11 | 81 | 1006.3 |
| 20260904001507 | 80 | 234 | 3.0 | 6.0 | 0.00 | 0.11 | 0.11 | 81 | 1006.3 |
| 20260904001007 | 80 | 148 | 2.0 | 6.0 | 0.00 | 0.11 | 0.11 | 80 | 1006.2 |
| 20260904000506 | 81 | 169 | 2.0 | 5.0 | 0.00 | 0.11 | 0.11 | 80 | 1006.0 |
| 20260903235506 | 81 | 168 | 2.0 | 6.0 | 0.00 | 0.11 | 0.11 | 80 | 1006.1 |
| 20260903235006 | 81 | 163 | 2.0 | 6.0 | 0.00 | 0.11 | 0.11 | 79 | 1006.0 |
| 20260903233506 | 81 | 163 | 2.0 | 6.0 | 0.00 | 0.11 | 0.11 | 78 | 1006.0 |
| 20260903233006 | 81 | 163 | 3.0 | 6.0 | 0.00 | 0.11 | 0.11 | 77 | 1006.1 |
| 20260903232506 | 81 | 159 | 1.0 | 5.0 | 0.00 | 0.11 | 0.11 | 77 | 1006.1 |
| 20260903232006 | 81 | 155 | 2.0 | 3.0 | 0.00 | 0.11 | 0.11 | 77 | 1006.2 |
| 20260903231506 | 81 | 155 | 1.0 | 6.0 | 0.00 | 0.11 | 0.11 | 77 | 1006.1 |
| 20260903231006 | 81 | 162 | 1.0 | 5.0 | 0.00 | 0.11 | 0.11 | 77 | 1006.2 |
| 20260903230506 | 82 | 160 | 1.0 | 5.0 | 0.00 | 0.11 | 0.11 | 77 | 1006.2 |
| 20260903230006 | 82 | 161 | 2.0 | 5.0 | 0.00 | 0.11 | 0.11 | 76 | 1006.2 |
| 20260903225506 | 82 | 166 | 3.0 | 5.0 | 0.00 | 0.11 | 0.11 | 76 | 1006.2 |
| 20260903225006 | 82 | 168 | 2.0 | 8.0 | 0.00 | 0.11 | 0.11 | 75 | 1006.0 |
| 20260903224506 | 82 | 174 | 3.0 | 9.0 | 0.00 | 0.11 | 0.11 | 75 | 1006.1 |
| 20260903224006 | 82 | 170 | 2.0 | 8.0 | 0.00 | 0.11 | 0.11 | 75 | 1006.1 |
| 20260903223506 | 82 | 180 | 2.0 | 8.0 | 0.00 | 0.11 | 0.11 | 74 | 1006.2 |
| 20260903223007 | 82 | 162 | 3.0 | 6.0 | 0.00 | 0.11 | 0.11 | 74 | 1006.1 |
| 20260903222506 | 82 | 173 | 2.0 | 5.0 | 0.00 | 0.11 | 0.11 | 75 | 1006.1 |
| 20260903222006 | 82 | 174 | 2.0 | 7.0 | 0.00 | 0.11 | 0.11 | 75 | 1006.1 |
| 20260903221506 | 82 | 163 | 3.0 | 7.0 | 0.00 | 0.11 | 0.11 | 74 | 1006.1 |
| 20260903220506 | 82 | 163 | 3.0 | 7.0 | 0.00 | 0.11 | 0.11 | 73 | 1005.9 |
| 20260903220006 | 82 | 175 | 2.0 | 7.0 | 0.00 | 0.11 | 0.11 | 73 | 1006.0 |
| 20260903215506 | 82 | 175 | 3.0 | 6.0 | 0.00 | 0.11 | 0.11 | 72 | 1006.0 |
| 20260903215006 | 83 | 150 | 2.0 | 13.0 | 0.00 | 0.11 | 0.11 | 73 | 1006.1 |
| 20260903214007 | 82 | 182 | 2.0 | 5.0 | 0.00 | 0.11 | 0.11 | 72 | 1006.2 |
| 20260903213507 | 83 | 202 | 3.0 | 5.0 | 0.00 | 0.11 | 0.11 | 72 | 1006.3 |
| 20260903213007 | 83 | 168 | 2.0 | 6.0 | 0.00 | 0.11 | 0.11 | 71 | 1006.4 |
| 20260903212506 | 83 | 150 | 3.0 | 8.0 | 0.00 | 0.11 | 0.11 | 71 | 1006.4 |
| 20260903212007 | 83 | 169 | 2.0 | 6.0 | 0.00 | 0.11 | 0.11 | 71 | 1006.5 |
| 20260903211506 | 83 | 146 | 2.0 | 10.0 | 0.00 | 0.11 | 0.11 | 72 | 1006.5 |
| 20260903210506 | 82 | 172 | 3.0 | 12.0 | 0.00 | 0.11 | 0.11 | 70 | 1006.2 |
| 20260903210006 | 83 | 166 | 4.0 | 9.0 | 0.00 | 0.11 | 0.11 | 69 | 1006.2 |
| 20260903205506 | 83 | 196 | 4.0 | 10.0 | 0.00 | 0.11 | 0.11 | 68 | 1006.1 |
| 20260903205006 | 83 | 187 | 4.0 | 10.0 | 0.00 | 0.11 | 0.11 | 68 | 1006.1 |
| 20260903204506 | 83 | 175 | 4.0 | 12.0 | 0.00 | 0.11 | 0.11 | 68 | 1006.4 |
| 20260903204006 | 83 | 166 | 4.0 | 9.0 | 0.00 | 0.11 | 0.11 | 68 | 1006.1 |
| 20260903203506 | 83 | 180 | 4.0 | 12.0 | 0.00 | 0.11 | 0.11 | 68 | 1006.1 |
| 20260903203006 | 83 | 186 | 4.0 | 10.0 | 0.00 | 0.11 | 0.11 | 68 | 1006.3 |
| 20260903202506 | 83 | 179 | 5.0 | 12.0 | 0.00 | 0.11 | 0.11 | 67 | 1006.5 |
| 20260903202006 | 83 | 185 | 3.0 | 9.0 | 0.00 | 0.11 | 0.11 | 69 | 1006.8 |
| 20260903201506 | 83 | 172 | 3.0 | 7.0 | 0.00 | 0.11 | 0.11 | 69 | 1006.8 |
| 20260903201006 | 83 | 171 | 2.0 | 6.0 | 0.00 | 0.11 | 0.11 | 70 | 1006.7 |
| 20260903200506 | 82 | 156 | 2.0 | 7.0 | 0.00 | 0.11 | 0.11 | 70 | 1006.7 |
| 20260903200006 | 82 | 157 | 4.0 | 7.0 | 0.00 | 0.11 | 0.11 | 69 | 1006.7 |
| 20260903195009 | 82 | 156 | 3.0 | 8.0 | 0.00 | 0.11 | 0.11 | 67 | 1006.7 |
| 20260903194506 | 82 | 179 | 3.0 | 12.0 | 0.00 | 0.11 | 0.11 | 66 | 1006.8 |
| 20260903194006 | 82 | 180 | 3.0 | 12.0 | 0.00 | 0.11 | 0.11 | 66 | 1006.8 |
| 20260903193506 | 82 | 170 | 2.0 | 9.0 | 0.00 | 0.11 | 0.11 | 66 | 1006.8 |
| 20260903193007 | 82 | 172 | 2.0 | 8.0 | 0.00 | 0.11 | 0.11 | 67 | 1006.9 |
| 20260903192506 | 82 | 162 | 2.0 | 5.0 | 0.00 | 0.11 | 0.11 | 65 | 1007.0 |
| 20260903192006 | 83 | 170 | 4.0 | 9.0 | 0.00 | 0.11 | 0.11 | 65 | 1007.1 |
| 20260903191506 | 83 | 163 | 3.0 | 6.0 | 0.00 | 0.11 | 0.11 | 64 | 1007.2 |
| 20260903191006 | 83 | 180 | 4.0 | 9.0 | 0.00 | 0.11 | 0.11 | 63 | 1007.3 |
| 20260903190506 | 83 | 160 | 3.0 | 8.0 | 0.00 | 0.11 | 0.11 | 65 | 1007.4 |
| 20260903190006 | 83 | 196 | 2.0 | 6.0 | 0.00 | 0.11 | 0.11 | 67 | 1007.3 |
| 20260903185006 | 83 | 176 | 2.0 | 6.0 | 0.00 | 0.11 | 0.11 | 65 | 1007.5 |
| 20260903184006 | 82 | 155 | 1.0 | 5.0 | 0.00 | 0.11 | 0.11 | 67 | 1007.4 |
| 20260903183506 | 82 | 163 | 3.0 | 10.0 | 0.00 | 0.11 | 0.11 | 68 | 1007.3 |
| 20260903183006 | 82 | 165 | 3.0 | 10.0 | 0.00 | 0.11 | 0.11 | 66 | 1007.4 |
| 20260903182506 | 82 | 164 | 2.0 | 6.0 | 0.00 | 0.11 | 0.11 | 65 | 1007.5 |
| 20260903182006 | 82 | 171 | 5.0 | 8.0 | 0.00 | 0.11 | 0.11 | 67 | 1007.5 |
| 20260903181006 | 81 | 106 | 2.0 | 8.0 | 0.00 | 0.11 | 0.11 | 71 | 1007.6 |
| 20260903180506 | 80 | 169 | 2.0 | 6.0 | 0.00 | 0.11 | 0.11 | 71 | 1007.9 |
| 20260903180006 | 81 | 163 | 3.0 | 5.0 | 0.00 | 0.11 | 0.11 | 70 | 1007.8 |
| 20260903175506 | 81 | 166 | 3.0 | 7.0 | 0.00 | 0.11 | 0.11 | 71 | 1007.7 |
| 20260903175006 | 80 | 176 | 2.0 | 6.0 | 0.00 | 0.11 | 0.11 | 74 | 1007.7 |
| 20260903174506 | 80 | 172 | 2.0 | 5.0 | 0.00 | 0.11 | 0.11 | 76 | 1007.7 |
| 20260903173006 | 80 | 170 | 2.0 | 6.0 | 0.00 | 0.11 | 0.11 | 73 | 1007.7 |
| 20260903172506 | 80 | 122 | 1.0 | 6.0 | 0.00 | 0.11 | 0.11 | 73 | 1007.7 |
| 20260903172006 | 80 | 159 | 3.0 | 6.0 | 0.00 | 0.11 | 0.11 | 72 | 1007.7 |
| 20260903171006 | 80 | 114 | 2.0 | 6.0 | 0.00 | 0.11 | 0.11 | 74 | 1007.5 |
| 20260903170506 | 79 | 155 | 3.0 | 5.0 | 0.00 | 0.11 | 0.11 | 76 | 1007.5 |
| 20260903170006 | 79 | 159 | 1.0 | 5.0 | 0.00 | 0.11 | 0.11 | 77 | 1007.5 |
| 20260903165506 | 79 | 159 | 2.0 | 10.0 | 0.00 | 0.11 | 0.11 | 76 | 1007.6 |
| 20260903165006 | 79 | 160 | 3.0 | 6.0 | 0.00 | 0.11 | 0.11 | 75 | 1007.7 |
| 20260903164506 | 79 | 157 | 3.0 | 9.0 | 0.00 | 0.11 | 0.11 | 77 | 1007.7 |
| 20260903163506 | 78 | 155 | 1.0 | 3.0 | 0.00 | 0.11 | 0.11 | 81 | 1007.4 |
| 20260903163006 | 77 | 155 | 1.0 | 3.0 | 0.00 | 0.11 | 0.11 | 83 | 1007.3 |
| 20260903162506 | 77 | 155 | 2.0 | 3.0 | 0.00 | 0.11 | 0.11 | 84 | 1007.2 |